Vorticity
1 1 6 10 6 9 9 8 4 3 4 4 4 6 7 14 11 -2 4 13 3 6 1 2 4 3 3 9 7 8 2 34 14 9 4 14 2 3 -3 3 5 0 -7 9 5
6 1 -0 5 11 5 10 9 7 3 4 5 3 5 4 14 9 -9 16 8 3 -1 2 1 -4 8 7 -5 11 17 -4 -6 12 11 13 9 5 0 -4 14 3 4 2 8 4
7 8 3 -1 5 10 5 11 9 7 3 5 4 4 3 5 14 3 18 5 -1 2 7 1 0 11 -10 6 5 8 8 5 7 11 6 30 3 5 12 8 7 3 2 4 6
10 10 11 4 0 7 9 7 11 9 6 4 7 4 3 4 7 2 19 7 1 1 -1 11 9 4 -7 7 7 2 5 12 1 25 21 5 6 20 1 28 6 6 4 6 6
8 8 14 9 4 1 10 7 12 10 9 5 5 7 4 1 -9 14 19 6 -1 -3 -3 1 7 4 9 3 15 14 6 6 13 14 6 7 10 8 4 -6 2 4 9 8 4
7 7 9 14 8 5 1 12 6 12 10 9 6 8 6 -5 6 -6 8 17 11 -2 2 2 6 13 15 1 -3 16 11 4 16 11 8 8 8 -1 6 3 6 -4 11 10 7
9 6 6 7 12 12 5 5 8 12 11 8 7 8 8 -11 16 -9 16 2 8 13 -0 5 3 9 13 5 18 14 7 10 8 4 11 2 5 6 8 1 7 11 10 8 10
6 7 7 7 8 13 12 2 13 7 13 9 7 9 6 5 -2 17 16 5 4 11 -3 14 4 3 7 5 11 6 4 3 12 5 -1 -9 11 11 -2 16 5 5 8 6 4
5 5 6 6 7 11 15 9 6 7 14 10 8 7 1 15 16 15 11 13 10 6 10 7 5 8 9 13 4 12 -6 12 3 1 -4 3 53 10 -9 -2 4 8 7 8 2
7 6 7 7 8 9 15 14 5 11 13 10 9 10 -13 9 6 1 10 -1 11 3 7 11 15 12 13 8 -1 19 6 8 -1 -10 9 5 -12 -0 1 21 14 5 11 7 9
9 8 6 6 6 9 15 15 13 20 9 -9 6 -1 -0 10 3 13 9 -2 6 12 5 4 -0 -2 6 7 3 -8 16 1 7 36 23 7 6 6 -6 -1 11 6 6 4 3
12 10 9 8 7 7 11 13 2 1 9 10 6 14 -6 -15 11 14 13 4 6 2 3 -5 8 7 9 1 13 9 8 12 40 0 8 6 5 4 21 -3 -7 31 5 10 5
12 12 9 10 8 6 8 13 4 8 11 9 18 6 15 4 10 14 13 9 -0 8 6 3 -19 7 20 6 16 11 12 1 18 14 8 11 4 12 15 15 13 13 10 7 7
11 13 12 9 8 6 6 12 11 7 11 21 18 20 5 13 11 5 2 -1 7 10 11 5 8 12 10 8 7 1 19 12 -1 8 2 40 -11 13 17 14 9 2 13 8 6
11 12 12 12 10 5 12 10 13 12 6 31 20 8 16 7 28 12 -1 16 -5 3 4 9 16 13 11 6 11 2 10 9 12 7 7 10 5 -6 3 14 15 17 14 13 17
10 12 11 12 12 9 5 9 13 2 14 10 8 23 -0 11 -9 29 11 3 17 2 4 5 9 1 17 15 5 -10 3 8 7 6 24 10 23 -5 4 19 11 15 9 12 18
9 11 11 11 9 14 6 10 -1 2 7 24 15 12 16 6 6 1 12 13 -6 11 7 13 11 6 9 -6 16 10 -1 12 28 17 -1 11 12 24 8 -6 1 -1 9 21 17
10 11 11 10 10 17 7 11 -1 13 -23 12 7 11 11 7 15 7 5 7 12 -4 7 7 5 7 25 5 5 14 4 -14 14 6 -5 14 -1 6 0 23 9 6 0 8 13
11 11 12 10 12 14 8 2 6 -5 43 -16 8 13 15 17 -2 13 10 3 10 13 -3 12 27 19 -1 14 -0 21 14 8 14 18 17 -0 1 18 6 7 2 11 16 9 4
11 13 10 13 12 15 13 -22 2 23 -12 20 7 17 17 11 3 17 -1 43 4 14 12 11 5 20 22 7 8 -13 21 16 6 10 7 8 9 61 6 6 4 -1 -0 2 -3
14 14 14 14 11 15 12 -3 5 -6 1 7 24 -15 9 26 7 12 21 -7 27 13 10 10 -5 14 10 10 1 25 -8 -3 11 -12 1 10 16 -5 16 9 5 -3 3 -8 2
14 12 15 17 11 17 12 15 -17 -3 9 -16 17 18 20 1 24 3 17 0 27 4 19 10 16 6 -6 10 13 9 22 18 -9 30 1 -13 20 -7 2 8 -9 -18 -6 6 -3
17 2 12 20 12 1 25 29 -3 10 8 16 -5 4 0 6 16 11 4 -7 14 13 11 27 26 13 2 11 25 7 1 3 16 8 11 -13 -2 26 9 9 3 8 -2 8 7
12 6 7 5 6 9 19 17 2 1 32 -5 4 22 10 -0 7 0 5 12 11 17 7 17 9 6 -2 6 19 24 33 7 6 9 1 5 5 7 -2 14 6 3 4 0 13
12 17 -0 19 27 -7 1 16 10 14 16 -7 23 8 12 13 10 8 -6 10 17 15 13 -10 6 3 15 3 7 3 15 11 23 22 2 17 17 24 34 -0 -6 5 -8 19 17
8 -8 15 -8 5 20 26 8 7 27 7 15 -0 12 -8 11 -1 18 24 8 -7 26 18 17 2 18 11 8 4 5 6 8 4 14 8 9 7 -4 6 -1 -5 1 25 19 13
11 -2 18 5 8 -1 18 17 3 -1 30 10 20 0 -20 19 8 5 -5 2 24 6 20 -1 6 13 27 10 14 19 8 6 4 8 4 7 13 11 13 6 4 19 12 9 13
Height
3170 3170 3169 3168 3168 3167 3166 3167 3167 3167 3167 3167 3168 3168 3168 3167 3168 3168 3168 3170 3173 3175 3176 3176 3176 3176 3177 3179 3179 3178 3180 3178 3176 3173 3175 3176 3180 3184 3185 3184 3187 3185 3185 3185 3187
3168 3169 3169 3167 3167 3167 3166 3166 3167 3167 3167 3167 3168 3169 3169 3169 3169 3169 3171 3171 3173 3176 3177 3177 3177 3178 3180 3183 3182 3180 3180 3179 3176 3174 3174 3176 3179 3181 3184 3182 3185 3186 3185 3186 3188
3166 3166 3166 3167 3166 3166 3165 3165 3165 3166 3167 3167 3168 3169 3170 3170 3171 3170 3172 3172 3174 3176 3176 3176 3180 3182 3181 3183 3182 3181 3181 3179 3177 3176 3174 3175 3181 3179 3184 3184 3185 3185 3184 3187 3188
3163 3164 3163 3164 3165 3165 3164 3164 3164 3164 3165 3167 3167 3169 3170 3170 3174 3173 3173 3174 3174 3175 3176 3177 3179 3182 3182 3182 3182 3182 3178 3179 3175 3174 3175 3177 3179 3180 3185 3186 3185 3183 3184 3186 3187
3161 3160 3160 3162 3163 3163 3163 3162 3162 3163 3164 3165 3167 3168 3170 3171 3171 3172 3172 3174 3175 3175 3176 3176 3181 3182 3183 3182 3182 3181 3179 3177 3175 3176 3177 3179 3177 3180 3183 3184 3183 3181 3183 3185 3186
3158 3158 3158 3158 3159 3161 3161 3161 3161 3161 3162 3163 3165 3166 3169 3170 3171 3172 3172 3173 3174 3175 3176 3178 3181 3182 3182 3181 3181 3180 3179 3177 3176 3177 3177 3178 3177 3179 3181 3181 3182 3181 3183 3184 3185
3155 3155 3156 3156 3156 3157 3158 3159 3159 3159 3160 3162 3163 3164 3166 3168 3169 3171 3171 3172 3173 3175 3176 3180 3181 3181 3181 3180 3179 3179 3178 3177 3177 3176 3176 3179 3178 3178 3178 3179 3180 3181 3182 3182 3184
3152 3152 3153 3153 3154 3154 3155 3157 3157 3158 3159 3160 3162 3163 3164 3164 3168 3169 3171 3172 3172 3175 3177 3175 3176 3177 3179 3178 3178 3179 3179 3178 3176 3175 3177 3177 3177 3176 3176 3177 3179 3180 3181 3181 3182
3149 3149 3150 3150 3151 3151 3152 3154 3155 3156 3157 3158 3161 3162 3165 3163 3167 3168 3171 3173 3172 3172 3172 3174 3175 3176 3176 3176 3178 3177 3175 3175 3175 3174 3176 3177 3174 3176 3175 3177 3177 3178 3179 3180 3180
3145 3146 3147 3147 3148 3149 3149 3151 3153 3154 3156 3157 3159 3163 3162 3165 3164 3165 3168 3169 3171 3171 3173 3173 3174 3174 3174 3175 3173 3175 3175 3171 3171 3171 3174 3176 3177 3176 3174 3175 3175 3176 3178 3178 3179
3141 3142 3143 3144 3145 3146 3148 3149 3153 3153 3152 3155 3155 3159 3158 3160 3162 3164 3165 3167 3170 3171 3172 3172 3174 3173 3172 3173 3172 3171 3173 3169 3167 3168 3171 3174 3176 3177 3172 3172 3174 3176 3175 3177 3177
3136 3138 3139 3141 3143 3144 3145 3147 3148 3150 3150 3150 3152 3154 3155 3156 3159 3162 3163 3167 3169 3170 3171 3174 3172 3172 3171 3171 3170 3170 3170 3169 3168 3168 3171 3173 3172 3172 3172 3168 3171 3173 3175 3175 3175
3132 3134 3136 3138 3140 3142 3143 3144 3146 3147 3147 3148 3148 3151 3153 3155 3157 3160 3160 3163 3167 3168 3168 3170 3170 3169 3167 3168 3170 3171 3170 3169 3169 3167 3170 3170 3167 3165 3167 3166 3167 3170 3174 3175 3174
3128 3130 3132 3135 3138 3139 3140 3142 3143 3146 3146 3146 3145 3146 3149 3151 3154 3158 3157 3162 3164 3165 3167 3168 3167 3167 3167 3169 3171 3170 3169 3168 3169 3169 3170 3168 3166 3160 3160 3165 3165 3167 3171 3175 3175
3124 3126 3128 3130 3134 3135 3140 3140 3142 3146 3146 3144 3144 3142 3145 3148 3152 3152 3154 3157 3160 3163 3166 3166 3164 3165 3166 3168 3169 3169 3169 3170 3169 3169 3169 3168 3167 3161 3160 3164 3168 3168 3168 3170 3172
3120 3122 3124 3127 3129 3131 3136 3139 3143 3146 3140 3139 3139 3138 3142 3145 3149 3151 3150 3154 3158 3159 3161 3163 3162 3163 3165 3166 3166 3167 3168 3169 3169 3169 3168 3167 3166 3163 3162 3165 3166 3167 3168 3169 3169
3116 3117 3120 3123 3124 3131 3135 3138 3143 3138 3136 3136 3136 3137 3139 3142 3145 3148 3148 3150 3153 3157 3158 3160 3160 3160 3161 3163 3164 3166 3169 3170 3167 3166 3166 3164 3164 3163 3162 3163 3163 3163 3163 3164 3165
3111 3113 3115 3118 3121 3126 3132 3137 3135 3131 3132 3131 3134 3136 3137 3140 3142 3144 3146 3148 3150 3153 3155 3156 3157 3156 3157 3160 3163 3163 3167 3169 3168 3163 3163 3164 3162 3162 3161 3161 3161 3160 3161 3161 3162
3105 3108 3111 3112 3116 3121 3127 3128 3125 3128 3130 3132 3132 3134 3135 3136 3139 3141 3143 3144 3146 3149 3152 3152 3152 3152 3154 3157 3160 3162 3163 3166 3165 3165 3166 3164 3163 3161 3160 3161 3160 3159 3159 3160 3160
3100 3103 3104 3110 3112 3118 3121 3116 3121 3127 3128 3128 3129 3131 3132 3133 3135 3137 3139 3139 3141 3145 3148 3149 3150 3150 3152 3154 3156 3158 3160 3163 3164 3167 3165 3161 3159 3154 3159 3160 3160 3158 3157 3158 3159
3095 3098 3097 3104 3107 3111 3108 3108 3117 3124 3125 3128 3128 3128 3129 3130 3132 3133 3135 3137 3137 3141 3143 3146 3149 3151 3149 3150 3153 3155 3156 3158 3161 3162 3161 3160 3160 3159 3158 3159 3157 3156 3154 3156 3156
3089 3094 3094 3098 3103 3102 3100 3108 3113 3119 3123 3123 3123 3124 3127 3128 3128 3131 3132 3133 3133 3137 3139 3142 3145 3145 3147 3147 3149 3150 3152 3154 3156 3158 3158 3159 3158 3156 3157 3154 3154 3151 3152 3152 3152
3085 3089 3088 3092 3094 3097 3100 3103 3106 3113 3116 3120 3122 3123 3125 3126 3128 3128 3130 3128 3130 3134 3136 3139 3141 3143 3144 3146 3145 3146 3148 3149 3150 3153 3154 3156 3154 3153 3152 3149 3152 3149 3149 3149 3147
3081 3081 3083 3086 3090 3093 3096 3099 3103 3107 3111 3114 3119 3121 3123 3124 3125 3126 3127 3126 3128 3130 3132 3134 3138 3139 3139 3140 3140 3141 3142 3144 3147 3148 3148 3149 3150 3150 3147 3146 3145 3144 3146 3145 3143
3075 3077 3081 3081 3084 3086 3091 3095 3099 3102 3105 3110 3110 3114 3118 3121 3122 3123 3124 3122 3124 3126 3129 3132 3134 3136 3138 3139 3139 3139 3138 3139 3140 3142 3146 3144 3146 3146 3143 3141 3140 3141 3142 3141 3139
3070 3073 3073 3076 3079 3083 3084 3088 3092 3095 3102 3105 3106 3110 3114 3117 3119 3118 3118 3121 3122 3122 3125 3128 3131 3132 3134 3135 3136 3137 3137 3136 3137 3139 3141 3142 3143 3142 3138 3137 3137 3137 3136 3137 3135
3065 3067 3069 3072 3075 3080 3082 3084 3087 3092 3091 3095 3103 3106 3105 3111 3108 3111 3114 3117 3119 3121 3121 3124 3127 3130 3130 3132 3133 3132 3132 3132 3134 3135 3135 3137 3139 3135 3132 3134 3134 3134 3133 3132 3132